星链-5622 (STARLINK-5622 )

导读

STARLINK-5622是美国太空探索技术公司星链(Starlink)互联网卫星项目的组成部分,于2023年1月26日发射,归属为星链第二代卫星。星链计划通过构建大规模近地轨道卫星星座,为全球提供高速低延迟互联网覆盖服务,该卫星承担着补充星座容量、提升网络服务稳定性的任务。

基本信息
目录编号:
55358
目录名称:
STARLINK-5622
国际标识:
2023-013AD
轨道中心:
EARTH
卫星名称:
星链-5622
卫星全名:
星链-5622 (STARLINK-5622 )
卫星状态:
在轨 (已飞行1236 天)
发射日期:
2023-01-26 UTC
国别 :
美国 (US)
星等 :
--
轨道信息
数据来源 国际轨道数据
星历时间: 2026-06-14T21:58:19+0800
12小时前
查看轨道信息
半长轴: 6861.233km
偏心率: 0.000059
轨道倾角: 43.000°
近地点辐角 306.027°
升交点赤经 116.059°
平近点角 54.053°
近地点: 482.691km
远地点: 483.501km
周期: 94.268分钟
每日圈数: 15.275646
详细信息
固有亮度:
5
最大亮度:
2.5
卫星平台:
Starlink v1.5
覆盖范围:
全球
运营商:
太空探索技术公司
运营商所在国:
美国
制造商(研发单位):
太空探索技术公司
制造商所在国:
美国
使用方式:
暂无
卫星简介
星链(Starlink)计划是由太空探索技术公司(SpaceX)提出的一个巨型低轨卫星互联网星座项目,计划在2019年至2024年间在太空搭建由约1.2万颗卫星组成的“星链”网络,其中1584颗将部署在地球上空550千米处的近地轨道,并从2020年开始工作。该卫星仍在工作。
2D轨道图
3D轨道图
轨道高度分析图
轨道倾角分析图
轨道综合分析图
查看轨道综合分析图